Weather History for Blackwell, OK

Change the Weather History Date:

Saturday, June 29, 2013

  Actual Average (KPNC) Record (KPNC)
Temperature  
Mean Temperature 80 °F -  
Max Temperature 93 °F 95 °F 103 °F (1952)
Min Temperature 66 °F 69 °F 61 °F (1948)
Cooling Degree Days 14    
Growing Degree Days 30 (Base 50)    
Moisture  
Dew Point 58 °F    
Average Humidity 52    
Maximum Humidity 94    
Minimum Humidity 26    
Precipitation  
Precipitation 0.00 in - - ()
Sea Level Pressure  
Sea Level Pressure 29.93 in    
Wind  
Wind Speed 9 mph (NNW)    
Max Wind Speed 23 mph    
Max Gust Speed 30 mph    
Visibility 10 miles    
Events      
Averages and records for this station are not official NWS values.
T = Trace of Precipitation, MM = Missing Value Source: NWS Daily Summary

Daily Weather History Graph

Daily Weather History Graph

Search for Another Location

Airport:

Trip Planner

Search our weather history database for the weather conditions in past years. The results will help you decide how hot, cold, wet, or windy it might be!

Date:

Astronomy

Jun. 29, 2013 Rise Set
Actual Time 6:13 AM CDT 8:52 PM CDT
Civil Twilight 5:42 AM CDT 9:22 PM CDT
Nautical Twilight 5:04 AM CDT 10:00 PM CDT
Astronomical Twilight 4:22 AM CDT 10:43 PM CDT
Moon 12:32 AM CDT (6/29) 1:14 PM CDT (6/29)
Length of Visible Light 15h 40m
Length of Day
14h 38m
Waning Gibbous, 55% of the Moon is Illuminated
Jun 29
Waning Gibbous
Jun 29
Last Quarter
Jul 8
New
Jul 15
First Quarter
Jul 22
Full

Hourly Weather History & Observations

Time (CDT) Temp. Heat Index Dew Point Humidity Pressure Visibility Wind Dir Wind Speed Gust Speed Precip Events Conditions
12:15 AM 73.4 °F - 66.2 °F 78% 29.92 in 10.0 mi NNE 5.8 mph - N/A   Clear
12:35 AM 71.6 °F - 64.4 °F 78% 29.92 in 10.0 mi North 5.8 mph - N/A   Clear
12:55 AM 71.6 °F - 64.4 °F 78% 29.92 in 10.0 mi North 5.8 mph - N/A   Clear
1:15 AM 71.6 °F - 64.4 °F 78% 29.93 in 10.0 mi North 4.6 mph - N/A   Clear
1:35 AM 71.6 °F - 64.4 °F 78% 29.93 in 10.0 mi NNW 4.6 mph - N/A   Partly Cloudy
1:55 AM 69.8 °F - 64.4 °F 83% 29.93 in 10.0 mi North 4.6 mph - N/A   Mostly Cloudy
2:15 AM 69.8 °F - 66.2 °F 88% 29.95 in 10.0 mi WNW 3.5 mph - N/A   Mostly Cloudy
2:35 AM 71.6 °F - 64.4 °F 78% 29.95 in 10.0 mi NNW 5.8 mph - N/A   Mostly Cloudy
2:55 AM 69.8 °F - 64.4 °F 83% 29.95 in 10.0 mi NNW 5.8 mph - N/A   Scattered Clouds
3:15 AM 68.0 °F - 64.4 °F 88% 29.95 in 10.0 mi North 5.8 mph - N/A   Partly Cloudy
3:35 AM 69.8 °F - 64.4 °F 83% 29.96 in 10.0 mi NNW 8.1 mph - N/A   Scattered Clouds
3:55 AM 69.8 °F - 64.4 °F 83% 29.95 in 10.0 mi NNW 5.8 mph - N/A   Mostly Cloudy
4:15 AM 69.8 °F - 64.4 °F 83% 29.94 in 10.0 mi North 6.9 mph - N/A   Mostly Cloudy
4:35 AM 69.8 °F - 64.4 °F 83% 29.95 in 10.0 mi NNW 8.1 mph - N/A   Mostly Cloudy
4:55 AM 68.0 °F - 64.4 °F 88% 29.96 in 10.0 mi NNW 6.9 mph - N/A   Mostly Cloudy
5:15 AM 68.0 °F - 64.4 °F 88% 29.96 in 10.0 mi NNW 6.9 mph - N/A   Scattered Clouds
5:35 AM 68.0 °F - 64.4 °F 88% 29.96 in 10.0 mi NNW 4.6 mph - N/A   Partly Cloudy
5:55 AM 66.2 °F - 62.6 °F 88% 29.96 in 10.0 mi Calm Calm - N/A   Partly Cloudy
6:15 AM 66.2 °F - 64.4 °F 94% 29.97 in 10.0 mi NW 5.8 mph - N/A   Partly Cloudy
6:35 AM 68.0 °F - 62.6 °F 83% 29.98 in 10.0 mi NW 8.1 mph - N/A   Clear
6:55 AM 68.0 °F - 64.4 °F 88% 29.97 in 10.0 mi NNW 6.9 mph - N/A   Clear
7:15 AM 68.0 °F - 64.4 °F 88% 29.97 in 10.0 mi NNW 5.8 mph - N/A   Clear
7:35 AM 73.4 °F - 62.6 °F 69% 29.97 in 10.0 mi NNW 6.9 mph - N/A   Clear
7:55 AM 75.2 °F - 62.6 °F 65% 29.98 in 10.0 mi NW 5.8 mph - N/A   Clear
8:15 AM 75.2 °F - 62.6 °F 65% 29.98 in 10.0 mi NNW 8.1 mph - N/A   Clear
8:35 AM 77.0 °F - 59.0 °F 54% 29.99 in 10.0 mi NNW 11.5 mph - N/A   Clear
8:55 AM 77.0 °F - 59.0 °F 54% 29.99 in 10.0 mi NNW 8.1 mph - N/A   Clear
9:15 AM 80.6 °F 81.1 °F 59.0 °F 48% 30.00 in 10.0 mi NNW 9.2 mph - N/A   Clear
9:35 AM 82.4 °F 82.5 °F 59.0 °F 45% 29.99 in 10.0 mi NNW 8.1 mph - N/A   Clear
9:55 AM 84.2 °F 83.5 °F 57.2 °F 40% 29.98 in 10.0 mi NNW 9.2 mph - N/A   Clear
10:15 AM 84.2 °F 83.5 °F 57.2 °F 40% 29.97 in 10.0 mi North 9.2 mph - N/A   Clear
10:35 AM 86.0 °F 84.9 °F 57.2 °F 37% 29.96 in 10.0 mi NNW 12.7 mph - N/A   Clear
10:55 AM 86.0 °F 84.5 °F 55.4 °F 35% 29.96 in 10.0 mi NW 13.8 mph 18.4 mph N/A   Clear
11:15 AM 87.8 °F 86.1 °F 55.4 °F 33% 29.96 in 10.0 mi NNW 13.8 mph 17.3 mph N/A   Clear
11:35 AM 89.6 °F 87.3 °F 53.6 °F 29% 29.96 in 10.0 mi NNW 12.7 mph 24.2 mph N/A   Clear
11:55 AM 89.6 °F 87.3 °F 53.6 °F 29% 29.95 in 10.0 mi NNW 19.6 mph 26.5 mph N/A   Clear
12:15 PM 89.6 °F 87.3 °F 53.6 °F 29% 29.95 in 10.0 mi North 16.1 mph 21.9 mph N/A   Clear
12:35 PM 91.4 °F 89.1 °F 53.6 °F 28% 29.94 in 10.0 mi North 23.0 mph 28.8 mph N/A   Clear
12:55 PM 89.6 °F - 51.8 °F 27% 29.94 in 10.0 mi NNW 19.6 mph 23.0 mph N/A   Clear
1:15 PM 91.4 °F 89.1 °F 53.6 °F 28% 29.94 in 10.0 mi North 19.6 mph 29.9 mph N/A   Clear
1:35 PM 91.4 °F 89.1 °F 53.6 °F 28% 29.93 in 10.0 mi North 19.6 mph 25.3 mph N/A   Clear
1:55 PM 91.4 °F 89.1 °F 53.6 °F 28% 29.93 in 10.0 mi NNW 15.0 mph 21.9 mph N/A   Clear
2:15 PM 91.4 °F 89.1 °F 53.6 °F 28% 29.92 in 10.0 mi North 20.7 mph 26.5 mph N/A   Partly Cloudy
2:35 PM 91.4 °F 89.1 °F 53.6 °F 28% 29.91 in 10.0 mi North 16.1 mph 26.5 mph N/A   Partly Cloudy
2:55 PM 91.4 °F 89.1 °F 53.6 °F 28% 29.91 in 10.0 mi NNE 11.5 mph 24.2 mph N/A   Partly Cloudy
3:15 PM 93.2 °F 90.8 °F 53.6 °F 26% 29.90 in 10.0 mi North 12.7 mph 21.9 mph N/A   Clear
3:35 PM 93.2 °F 90.8 °F 53.6 °F 26% 29.89 in 10.0 mi North 20.7 mph 24.2 mph N/A   Clear
3:55 PM 93.2 °F 90.8 °F 53.6 °F 26% 29.89 in 10.0 mi NW 17.3 mph 23.0 mph N/A   Clear
4:15 PM 91.4 °F 89.1 °F 53.6 °F 28% 29.88 in 10.0 mi NNW 17.3 mph 24.2 mph N/A   Clear
4:35 PM 93.2 °F 90.8 °F 53.6 °F 26% 29.87 in 10.0 mi North 23.0 mph 28.8 mph N/A   Partly Cloudy
4:55 PM 91.4 °F 89.1 °F 53.6 °F 28% 29.87 in 10.0 mi NNW 18.4 mph 26.5 mph N/A   Scattered Clouds
5:15 PM 91.4 °F 89.1 °F 53.6 °F 28% 29.87 in 10.0 mi NNW 21.9 mph 26.5 mph N/A   Scattered Clouds
5:35 PM 93.2 °F 91.3 °F 55.4 °F 28% 29.86 in 10.0 mi NNW 23.0 mph 29.9 mph N/A   Partly Cloudy
5:55 PM 91.4 °F 89.1 °F 53.6 °F 28% 29.85 in 10.0 mi NNW 23.0 mph 26.5 mph N/A   Clear
6:15 PM 91.4 °F 89.1 °F 53.6 °F 28% 29.85 in 10.0 mi NNW 18.4 mph 24.2 mph N/A   Partly Cloudy
6:35 PM 91.4 °F 89.1 °F 53.6 °F 28% 29.85 in 10.0 mi North 12.7 mph 20.7 mph N/A   Partly Cloudy
6:55 PM 89.6 °F 87.3 °F 53.6 °F 29% 29.85 in 10.0 mi North 16.1 mph 21.9 mph N/A   Partly Cloudy
7:15 PM 89.6 °F 87.3 °F 53.6 °F 29% 29.85 in 10.0 mi North 18.4 mph 24.2 mph N/A   Clear
7:35 PM 89.6 °F 87.3 °F 53.6 °F 29% 29.85 in 10.0 mi North 17.3 mph 24.2 mph N/A   Clear
7:55 PM 87.8 °F - 51.8 °F 29% 29.86 in 10.0 mi North 13.8 mph 24.2 mph N/A   Clear
8:15 PM 86.0 °F - 51.8 °F 31% 29.86 in 10.0 mi North 13.8 mph 21.9 mph N/A   Clear
8:35 PM 84.2 °F - 51.8 °F 33% 29.86 in 10.0 mi North 11.5 mph - N/A   Clear
8:55 PM 82.4 °F - 50.0 °F 32% 29.87 in 9.0 mi North 10.4 mph - N/A   Clear
9:15 PM 78.8 °F - 53.6 °F 42% 29.88 in 10.0 mi North 8.1 mph - N/A   Clear
9:35 PM 75.2 °F - 53.6 °F 47% 29.89 in 10.0 mi NNE 8.1 mph - N/A   Clear
9:55 PM 75.2 °F - 53.6 °F 47% 29.90 in 10.0 mi North 6.9 mph - N/A   Clear
10:15 PM 73.4 °F - 55.4 °F 53% 29.91 in 10.0 mi North 8.1 mph - N/A   Clear
10:35 PM 73.4 °F - 53.6 °F 50% 29.92 in 10.0 mi North 9.2 mph - N/A   Clear
10:55 PM 69.8 °F - 53.6 °F 56% 29.92 in 10.0 mi North 8.1 mph - N/A   Clear
11:15 PM 69.8 °F - 53.6 °F 56% 29.92 in 10.0 mi North 8.1 mph - N/A   Clear
11:35 PM 68.0 °F - 55.4 °F 64% 29.92 in 10.0 mi North 8.1 mph - N/A   Clear
11:55 PM 69.8 °F - 53.6 °F 56% 29.93 in 10.0 mi North 10.4 mph - N/A   Clear